リニア彗星

P/2003 O3 ( LINEAR ) 2009

English version
Home page
Updated on April 7, 2009

---------------------------------------------------------------------

・ プロフィール

・ 軌道要素

The following orbital elements are taken from MPC 56802:

Epoch 2009 Feb. 18.0 TT = JDT 2454880.5
T 2009 Jan. 30.0121 TT                                  MPC
q   1.246744             (2000.0)            P               Q
n   0.1801519      Peri.    0.6907      +0.9519835      +0.3026450
a   3.104871       Node   341.4896      -0.2815796      +0.8063409
e   0.598455       Incl.    8.3656      -0.1201682      +0.5081538
P   5.47
From 259 observations 2003 July 30-Dec. 15, mean residual 0".6.

・ 光度変化

        m1 = 18.5 + 5 logΔ + 10.0 log r

---------------------------------------------------------------------

軌道要素はMPCのEphemerides and Orbital Elementsに掲載されたものです。
光度グラフはComet for Windowsで作成したものです。

---------------------------------------------------------------------

Copyright(C) Seiichi Yoshida (comet@aerith.net). All rights reserved.